When you browse on this site, cookies collect data to enhance your experience and personalize the content and advertising you see.
Visit our Privacy Policy to learn more. By continuing to use the site, you agree to this use of cookies and data.
  • In Netherlands
  • List of Countries
  • For 7 days
  • Water Temperature
  • Satellite Maps
  • Weather Map
  • Weather Widgets
  • user-avatar
    Login

    Hourly Weather Suhotskoe

    Today, 20 February, Wednesday

    Time Temperature Precipitation Wind Pressure Humidity
    00:00 -1°C° 0 mm 0 mps 753 mmHg 55%
    01:00 0°C° 0 mm 1 mps 753 mmHg 56%
    02:00 0°C° 0 mm 1 mps 752 mmHg 57%
    03:00 -3°C° 0 mm 2 mps 752 mmHg 54%
    04:00 -3°C° 0 mm 2 mps 752 mmHg 54%
    05:00 -3°C° 0 mm 2 mps 751 mmHg 55%
    06:00 -3°C° 0 mm 2 mps 751 mmHg 56%
    07:00 -2°C° 0 mm 2 mps 751 mmHg 52%
    08:00 -1°C° 0 mm 2 mps 751 mmHg 49%
    09:00 0°C° 0 mm 3 mps 750 mmHg 45%
    10:00 +1°C° 0 mm 3 mps 750 mmHg 41%
    11:00 +2°C° 0 mm 3 mps 749 mmHg 37%
    12:00 +4°C° 0 mm 4 mps 749 mmHg 33%
    13:00 +4°C° 0 mm 4 mps 749 mmHg 33%
    14:00 +5°C° 0 mm 4 mps 748 mmHg 32%
    15:00 +5°C° 0 mm 4 mps 748 mmHg 31%
    16:00 +4°C° 0 mm 3 mps 748 mmHg 35%
    17:00 +3°C° 0 mm 2 mps 748 mmHg 40%
    18:00 +2°C° 0 mm 2 mps 748 mmHg 44%
    19:00 +3°C° 0 mm 1 mps 748 mmHg 47%
    20:00 +2°C° 0 mm 1 mps 748 mmHg 51%
    21:00 +1°C° 0 mm 0 mps 748 mmHg 54%
    22:00 0°C° 0 mm 0 mps 748 mmHg 56%
    23:00 0°C° 0 mm 0 mps 748 mmHg 57%

    Tomorrow, 21 February, Thursday

    Time Temperature Precipitation Wind Pressure Humidity
    00:00 +1°C° 0 mm 1 mps 748 mmHg 59%
    01:00 +1°C° 0 mm 1 mps 748 mmHg 60%
    02:00 +1°C° 0 mm 1 mps 747 mmHg 60%
    03:00 +1°C° 0 mm 1 mps 747 mmHg 61%
    04:00 +1°C° 0 mm 1 mps 747 mmHg 60%
    05:00 +1°C° 0 mm 1 mps 747 mmHg 59%
    06:00 +1°C° 0 mm 1 mps 747 mmHg 59%
    07:00 +2°C° 0 mm 1 mps 747 mmHg 55%
    08:00 +3°C° 0 mm 1 mps 747 mmHg 50%
    09:00 +4°C° 0 mm 1 mps 746 mmHg 46%
    10:00 +5°C° 0 mm 1 mps 746 mmHg 41%
    11:00 +7°C° 0 mm 1 mps 746 mmHg 36%
    12:00 +9°C° 0 mm 1 mps 745 mmHg 31%
    13:00 +9°C° 0 mm 1 mps 745 mmHg 29%
    14:00 +10°C° 0 mm 1 mps 745 mmHg 27%
    15:00 +10°C° 0 mm 2 mps 744 mmHg 25%
    16:00 +10°C° 0 mm 1 mps 744 mmHg 29%
    17:00 +9°C° 0 mm 1 mps 745 mmHg 33%
    18:00 +7°C° 0 mm 1 mps 745 mmHg 37%
    19:00 +7°C° 0 mm 1 mps 745 mmHg 38%
    20:00 +6°C° 0 mm 1 mps 745 mmHg 40%
    21:00 +4°C° 0 mm 0 mps 746 mmHg 41%
    22:00 +5°C° 0 mm 1 mps 745 mmHg 41%
    23:00 +5°C° 0 mm 1 mps 745 mmHg 41%

    Day after tomorrow, 22 February, Friday

    Time Temperature Precipitation Wind Pressure Humidity
    00:00 +5°C° 0 mm 1 mps 745 mmHg 42%
    01:00 +4°C° 0 mm 1 mps 745 mmHg 44%
    02:00 +4°C° 0 mm 1 mps 746 mmHg 47%
    03:00 +4°C° 0 mm 1 mps 746 mmHg 49%
    04:00 +4°C° 0 mm 1 mps 746 mmHg 57%
    05:00 +3°C° 0 mm 1 mps 746 mmHg 66%
    06:00 +3°C° 0 mm 1 mps 746 mmHg 74%
    07:00 +4°C° 0.1 mm 1 mps 746 mmHg 77%
    08:00 +4°C° 0.1 mm 1 mps 747 mmHg 80%
    09:00 +5°C° 0.1 mm 1 mps 747 mmHg 83%
    10:00 +5°C° 0.1 mm 1 mps 747 mmHg 76%
    11:00 +5°C° 0.1 mm 2 mps 747 mmHg 70%
    12:00 +4°C° 0.1 mm 3 mps 747 mmHg 64%
    13:00 +5°C° 0 mm 2 mps 746 mmHg 60%
    14:00 +5°C° 0 mm 2 mps 746 mmHg 57%
    15:00 +6°C° 0 mm 2 mps 746 mmHg 54%
    16:00 +6°C° 0 mm 1 mps 746 mmHg 57%
    17:00 +6°C° 0 mm 1 mps 747 mmHg 60%
    18:00 +6°C° 0 mm 1 mps 747 mmHg 63%
    19:00 +4°C° 0 mm 2 mps 747 mmHg 67%
    20:00 +4°C° 0 mm 2 mps 747 mmHg 71%
    21:00 +3°C° 0 mm 2 mps 747 mmHg 76%
    22:00 +2°C° 0 mm 3 mps 747 mmHg 79%
    23:00 +1°C° 0 mm 3 mps 747 mmHg 83%

    23 February, Saturday

    Time Temperature Precipitation Wind Pressure Humidity
    00:00 +1°C° 0 mm 3 mps 747 mmHg 87%
    01:00 +1°C° 0 mm 3 mps 747 mmHg 89%
    02:00 0°C° 0 mm 3 mps 746 mmHg 92%
    03:00 +1°C° 0 mm 2 mps 746 mmHg 94%
    04:00 +1°C° 0 mm 2 mps 746 mmHg 94%
    05:00 +1°C° 0 mm 2 mps 746 mmHg 94%
    06:00 +2°C° 0 mm 1 mps 746 mmHg 94%
    07:00 +2°C° 0 mm 1 mps 746 mmHg 92%
    08:00 +3°C° 0 mm 1 mps 747 mmHg 90%
    09:00 +2°C° 0 mm 0 mps 747 mmHg 88%
    10:00 +4°C° 0 mm 1 mps 746 mmHg 81%
    11:00 +6°C° 0 mm 1 mps 746 mmHg 74%
    12:00 +6°C° 0 mm 2 mps 746 mmHg 67%
    13:00 +7°C° 0 mm 2 mps 746 mmHg 61%
    14:00 +9°C° 0 mm 3 mps 745 mmHg 55%
    15:00 +10°C° 0 mm 3 mps 745 mmHg 49%
    16:00 +9°C° 0 mm 2 mps 746 mmHg 54%
    17:00 +8°C° 0 mm 2 mps 746 mmHg 58%
    18:00 +8°C° 0 mm 2 mps 747 mmHg 62%
    19:00 +7°C° 0 mm 2 mps 747 mmHg 68%
    20:00 +7°C° 0 mm 1 mps 747 mmHg 73%
    21:00 +6°C° 0 mm 1 mps 748 mmHg 79%
    22:00 +6°C° 0 mm 1 mps 748 mmHg 83%
    23:00 +5°C° 0 mm 1 mps 748 mmHg 87%

    24 February, Sunday

    Time Temperature Precipitation Wind Pressure Humidity
    00:00 +5°C° 0 mm 1 mps 748 mmHg 91%
    01:00 +5°C° 0 mm 1 mps 748 mmHg 92%
    02:00 +3°C° 0 mm 0 mps 748 mmHg 94%
    03:00 +3°C° 0 mm 0 mps 748 mmHg 95%
    04:00 +3°C° 0 mm 0 mps 748 mmHg 95%
    05:00 +4°C° 0 mm 1 mps 749 mmHg 95%
    06:00 +4°C° 0 mm 1 mps 749 mmHg 95%
    07:00 +4°C° 0 mm 1 mps 749 mmHg 93%
    08:00 +4°C° 0 mm 1 mps 749 mmHg 91%
    09:00 +5°C° 0 mm 1 mps 749 mmHg 88%
    10:00 +6°C° 0 mm 1 mps 749 mmHg 83%
    11:00 +7°C° 0 mm 1 mps 749 mmHg 77%
    12:00 +8°C° 0 mm 1 mps 748 mmHg 72%
    13:00 +9°C° 0 mm 1 mps 748 mmHg 67%
    14:00 +9°C° 0 mm 2 mps 748 mmHg 62%
    15:00 +9°C° 0 mm 2 mps 748 mmHg 57%
    16:00 +9°C° 0 mm 2 mps 748 mmHg 60%
    17:00 +8°C° 0 mm 2 mps 749 mmHg 64%
    18:00 +7°C° 0 mm 2 mps 749 mmHg 68%
    19:00 +7°C° 0 mm 2 mps 750 mmHg 71%
    20:00 +5°C° 0 mm 3 mps 750 mmHg 75%
    21:00 +5°C° 0 mm 3 mps 750 mmHg 78%
    22:00 +5°C° 0 mm 2 mps 750 mmHg 80%
    23:00 +5°C° 0 mm 2 mps 750 mmHg 82%

    25 February, Monday

    Time Temperature Precipitation Wind Pressure Humidity
    00:00 +5°C° 0 mm 1 mps 750 mmHg 84%
    01:00 +4°C° 0 mm 2 mps 750 mmHg 83%
    02:00 +3°C° 0 mm 3 mps 750 mmHg 83%
    03:00 +3°C° 0 mm 3 mps 750 mmHg 83%
    04:00 +2°C° 0.1 mm 3 mps 750 mmHg 83%
    05:00 +2°C° 0.1 mm 3 mps 750 mmHg 83%
    06:00 +1°C° 0.1 mm 3 mps 750 mmHg 84%
    07:00 +1°C° 0.1 mm 3 mps 750 mmHg 83%
    08:00 +1°C° 0.1 mm 3 mps 750 mmHg 83%
    09:00 +1°C° 0.1 mm 3 mps 749 mmHg 82%
    10:00 +2°C° 0 mm 3 mps 749 mmHg 79%
    11:00 +2°C° 0 mm 3 mps 748 mmHg 76%
    12:00 +3°C° 0 mm 3 mps 747 mmHg 73%
    13:00 +3°C° 0 mm 3 mps 747 mmHg 72%
    14:00 +3°C° 0 mm 4 mps 746 mmHg 70%
    15:00 +4°C° 0 mm 4 mps 746 mmHg 68%
    16:00 +3°C° 0 mm 4 mps 746 mmHg 69%
    17:00 +3°C° 0 mm 4 mps 745 mmHg 70%
    18:00 +3°C° 0 mm 4 mps 745 mmHg 71%
    19:00 +3°C° 0 mm 4 mps 745 mmHg 71%
    20:00 +1°C° 0 mm 4 mps 745 mmHg 72%
    21:00 +1°C° 0 mm 4 mps 745 mmHg 72%
    22:00 +1°C° 0 mm 4 mps 744 mmHg 71%
    23:00 +1°C° 0 mm 4 mps 744 mmHg 71%
    Show more